Theta_e
316 318 319 317 322 316 317 316 312 314 314 314 310 314 317 317 316 317 326 336 338 337 337 337 337 338 338 333 339 339 340 338 338 335 333 332 331 330 330 328 329 330 331 331 333 333 333 331 330
317 319 317 311 318 316 316 312 315 313 317 315 315 318 321 323 323 327 332 336 338 337 338 338 338 338 337 332 338 339 340 337 336 335 332 329 329 329 327 327 327 328 329 330 332 333 331 331 332
317 317 318 314 311 316 315 312 313 313 315 312 318 318 320 324 321 327 327 334 339 337 338 337 338 338 336 331 337 338 339 337 335 334 330 326 323 322 323 324 324 326 328 329 332 333 333 332 329
317 314 308 315 315 313 314 313 311 316 314 311 317 322 320 323 323 326 331 333 339 338 338 338 337 336 334 332 336 337 338 337 335 332 327 324 321 319 316 318 322 323 326 327 330 330 330 330 326
312 310 313 313 313 311 309 311 312 315 312 314 314 317 324 323 325 329 335 336 339 338 337 338 336 334 331 334 336 336 337 338 336 331 325 325 324 322 318 315 318 320 323 325 328 328 326 325 323
312 309 314 314 312 311 311 309 311 312 310 312 315 319 322 322 327 330 337 339 339 338 336 336 335 332 331 333 334 335 336 337 336 328 327 326 324 322 319 314 316 318 320 322 323 323 323 320 316
312 311 313 311 312 313 313 307 310 311 311 313 314 319 317 317 328 331 338 339 339 339 337 335 334 333 332 332 333 334 334 336 336 329 328 326 323 321 319 315 315 315 316 317 317 318 316 311 306
305 308 310 310 312 314 310 308 310 310 311 309 312 317 315 320 329 334 339 339 339 339 338 337 337 336 334 334 334 335 334 334 336 331 328 325 323 321 319 319 318 315 308 304 304 305 303 302 301
303 309 310 311 310 312 308 311 307 307 309 309 309 309 310 319 330 333 338 339 338 337 338 338 338 338 337 335 335 335 334 333 334 333 329 328 327 323 320 319 318 317 315 308 303 303 303 304 306
306 306 307 307 307 311 311 310 309 310 310 311 309 307 309 320 327 330 333 335 337 337 337 338 337 338 338 336 336 335 333 333 334 333 330 329 327 324 321 320 319 318 317 315 313 312 311 311 310
305 307 306 308 308 310 311 310 307 310 311 310 312 309 308 320 324 327 331 336 337 337 337 338 338 336 334 335 336 335 334 334 334 334 330 328 326 324 322 321 319 318 318 317 316 314 313 312 311
311 309 307 310 310 311 311 309 309 307 311 309 307 307 308 318 321 324 327 332 335 335 336 337 336 335 334 334 334 335 335 335 335 334 332 329 327 325 323 321 320 318 317 317 315 314 312 311 310
312 311 310 310 310 310 310 311 311 308 307 306 306 305 308 315 321 323 326 330 333 333 334 335 334 334 333 333 333 336 336 335 335 335 333 331 328 326 324 322 321 319 317 316 315 313 312 310 308
310 311 311 310 311 311 312 310 310 309 306 306 306 306 306 309 316 318 322 327 328 330 332 331 331 332 332 333 333 333 333 335 334 334 334 332 330 327 325 323 321 319 318 316 315 314 311 308 306
310 313 310 310 310 311 309 312 311 309 307 308 306 306 304 305 308 314 321 324 327 327 327 327 327 328 328 329 331 332 329 331 332 332 334 333 331 329 326 324 322 320 318 317 316 313 310 306 303
311 309 313 310 309 310 311 313 310 307 306 308 306 305 304 304 305 309 313 319 321 320 319 317 316 316 317 319 322 328 330 330 331 331 332 333 332 330 327 325 323 320 318 317 315 312 307 302 299
308 310 311 310 308 310 310 312 310 307 306 307 306 305 304 304 303 306 308 311 314 316 314 312 312 312 312 312 313 315 322 328 330 333 332 332 332 331 329 326 323 321 319 315 314 309 308 300 294
309 312 310 311 310 310 311 311 309 307 307 307 307 306 304 304 305 307 308 308 309 311 312 311 311 311 312 313 313 315 318 325 328 330 332 333 333 331 329 325 323 320 318 313 311 309 301 298 292
306 309 310 308 309 311 310 310 311 309 306 306 307 306 306 307 307 306 308 308 307 307 308 309 309 311 313 313 315 317 320 322 326 326 329 331 331 330 328 326 321 319 317 314 311 307 302 291 289
310 311 310 308 308 310 310 310 309 310 310 310 310 311 309 307 304 304 304 305 306 306 307 308 309 310 312 313 313 316 318 320 322 324 324 327 328 327 327 325 323 317 313 309 309 307 294 290 291
310 310 310 312 310 308 309 310 309 308 308 308 308 309 310 309 308 304 300 302 303 304 306 307 308 309 311 312 313 314 315 318 318 321 320 322 323 326 323 323 321 316 314 312 311 306 301 292 294
311 308 310 311 312 312 309 314 311 310 310 309 310 309 307 305 304 303 300 300 302 304 304 306 307 309 310 310 313 313 315 313 315 317 320 320 321 320 322 321 319 316 312 314 310 305 303 300 297
311 308 309 310 311 311 311 313 311 309 311 311 312 310 306 305 303 303 300 301 302 302 303 305 306 308 308 309 312 314 314 314 315 316 316 315 315 316 317 318 315 312 312 313 308 304 302 300 300
308 309 309 307 309 315 311 313 311 311 311 311 310 309 307 306 303 301 300 300 301 301 303 305 306 308 308 309 311 312 312 312 311 312 310 310 311 311 311 312 311 311 309 305 305 304 301 301 302
310 312 313 312 313 316 309 311 313 311 309 309 311 309 306 305 304 301 299 298 299 301 303 304 306 307 307 309 310 310 310 312 312 313 310 308 306 307 309 309 308 303 300 302 303 302 302 301 298
310 311 313 311 313 313 310 315 315 309 308 306 305 305 305 304 302 300 298 298 299 301 302 303 305 306 305 307 308 308 308 310 309 312 310 309 309 311 308 308 306 297 296 300 299 296 291 290 289
310 313 310 313 297 310 312 311 310 309 308 308 308 307 307 305 302 300 297 298 299 301 302 303 305 305 303 306 306 305 306 306 305 305 305 304 303 305 302 301 299 293 291 290 289 289 289 288 288
310 309 314 310 313 312 314 313 315 314 312 310 309 309 307 305 301 298 297 298 299 301 302 304 305 303 303 305 306 306 305 305 304 304 303 302 302 300 297 292 290 289 289 288 288 288 287 287 286
310 311 311 311 311 314 312 318 308 311 310 311 309 308 307 305 301 298 297 298 299 300 302 303 304 303 303 305 305 304 303 302 301 302 302 301 297 297 291 289 288 288 288 287 287 287 286 286 285
309 311 310 315 312 310 312 319 308 309 309 308 307 306 305 303 300 297 296 297 297 299 301 303 303 303 303 305 304 302 302 301 299 299 300 299 297 293 288 287 287 287 287 286 287 286 286 286 285
Wind_Speed
6 2 1 3 3 4 1 3 1 3 2 1 3 4 5 2 3 2 6 13 19 22 20 18 18 18 17 16 15 14 14 13 15 14 14 15 15 16 17 16 17 17 15 16 16 17 18 19 19
4 1 3 2 4 2 3 2 5 4 3 6 3 2 1 2 1 3 10 12 21 23 21 19 19 18 17 16 15 15 13 14 14 13 13 15 16 16 16 16 16 17 16 17 16 17 20 18 20
2 2 3 4 3 3 4 5 5 2 5 2 3 1 4 2 1 9 4 14 21 24 22 20 18 18 18 17 15 15 13 13 12 12 14 15 16 15 16 16 17 17 18 17 16 18 20 20 20
1 4 4 4 3 3 3 3 5 6 3 2 2 2 1 2 4 4 7 15 23 23 21 20 18 17 17 17 15 14 15 14 12 13 14 14 15 15 16 16 17 18 19 17 18 19 20 21 19
5 3 4 3 3 3 4 2 6 6 2 3 2 3 2 2 5 7 11 18 23 22 20 19 17 17 17 16 15 15 15 15 14 14 14 14 15 15 16 17 18 18 19 19 20 20 19 18 17
3 3 4 1 3 3 3 5 5 4 2 2 2 5 3 4 8 10 16 18 20 21 19 18 17 16 16 15 14 14 15 14 13 13 14 14 14 15 16 17 18 19 19 19 19 18 17 17 17
5 4 4 4 3 3 4 7 5 6 3 4 4 5 2 4 10 13 19 18 19 19 19 19 18 17 16 15 14 14 13 15 13 13 14 14 15 15 16 17 18 19 19 19 18 17 16 17 18
4 4 3 3 4 5 4 6 1 6 6 2 3 4 3 5 15 16 20 19 18 19 21 21 20 19 19 17 15 15 14 15 15 14 15 15 16 15 16 16 16 18 18 18 17 17 17 19 20
3 4 2 5 6 5 4 5 1 1 5 3 5 3 1 10 17 17 20 19 19 19 21 22 21 19 18 17 15 13 12 13 14 15 16 14 10 13 15 15 15 17 18 18 18 19 19 20 22
4 4 8 5 5 3 3 4 6 4 3 4 4 6 4 16 20 21 22 23 21 21 22 22 22 21 18 20 18 17 15 16 18 19 19 15 14 14 16 16 17 16 17 18 19 19 20 20 22
3 5 4 3 3 3 2 2 6 5 4 8 9 5 8 16 20 21 24 27 28 24 23 23 22 24 20 18 18 17 18 17 20 21 21 20 18 16 16 18 17 18 16 18 18 19 20 20 21
1 1 4 1 2 3 3 3 3 7 7 2 8 3 9 12 18 22 25 28 28 26 25 24 23 24 22 21 20 18 20 20 21 22 22 22 21 19 17 17 16 16 18 19 19 20 20 20 21
2 1 2 2 1 3 1 5 5 8 10 4 2 7 10 12 19 21 24 25 25 26 26 25 24 24 23 22 21 21 20 22 23 24 25 24 23 22 20 18 17 16 17 19 20 20 20 21 21
1 1 4 3 2 3 3 1 1 4 1 6 5 8 8 12 22 17 23 28 29 28 27 25 24 24 24 24 24 23 22 23 24 26 27 27 26 25 23 22 20 19 18 19 21 21 22 23 22
2 3 5 3 1 4 4 6 10 6 1 6 9 8 8 13 15 26 32 34 33 30 27 27 26 24 24 24 24 25 24 23 24 26 28 28 28 27 26 25 23 21 21 21 22 23 25 26 25
3 4 3 2 3 2 4 10 8 3 5 12 8 8 8 10 21 28 31 33 32 30 29 26 25 24 24 24 25 26 27 25 24 27 27 30 30 30 29 27 25 25 24 26 26 28 30 29 28
6 3 4 8 6 2 3 8 5 2 3 9 8 8 9 11 14 29 32 34 32 31 29 27 26 24 24 23 24 24 25 28 25 27 28 27 32 32 31 31 29 27 26 27 29 30 30 32 30
6 4 4 5 2 2 4 14 12 8 5 10 10 9 10 11 18 27 34 34 32 30 29 28 26 24 22 21 21 21 22 24 26 26 29 30 29 32 32 32 32 31 30 30 30 33 32 34 35
5 4 4 5 4 4 8 10 17 9 7 12 14 14 15 16 21 24 32 33 33 31 31 31 29 27 26 24 23 23 25 26 25 27 28 31 32 34 34 34 32 34 35 34 33 36 38 34 37
4 3 5 6 3 6 8 13 13 16 12 15 17 18 18 16 10 15 24 29 36 38 36 33 33 31 30 28 26 26 27 26 27 25 27 29 33 34 34 37 32 37 36 35 37 40 35 30 33
5 6 5 8 3 3 5 8 8 7 8 12 18 22 17 17 17 8 14 28 31 37 41 40 38 35 32 29 26 24 25 22 23 25 27 27 30 31 34 36 37 37 36 38 38 42 42 32 27
6 9 5 2 2 5 1 8 5 7 10 8 16 12 13 10 8 5 11 20 31 39 37 38 37 36 33 31 32 34 32 23 26 30 25 25 28 31 32 37 37 36 37 35 40 43 42 43 33
5 6 6 3 3 4 2 1 6 1 7 17 15 10 8 8 9 9 10 20 25 29 35 35 34 34 32 33 34 34 30 27 27 28 29 30 30 30 32 32 33 33 34 33 39 43 38 38 32
7 5 5 4 2 5 9 8 4 5 9 6 8 3 4 3 5 5 5 10 14 20 27 30 32 32 35 34 34 33 32 31 27 29 30 30 29 30 31 31 31 30 31 34 37 40 35 32 26
3 6 2 3 1 8 3 3 7 7 8 8 10 2 2 1 3 3 2 6 12 19 24 23 25 26 32 33 34 33 33 33 33 34 35 34 32 32 32 32 31 30 31 34 36 36 32 30 26
9 8 6 7 4 5 1 8 6 9 11 9 7 3 5 7 3 3 4 7 13 18 23 23 24 24 29 32 32 33 33 34 34 35 39 39 37 36 36 35 34 33 33 34 33 32 29 25 24
7 7 5 2 2 2 5 8 7 10 11 9 6 2 7 6 6 5 4 9 12 16 22 24 23 24 28 31 29 29 29 29 30 32 36 38 37 36 35 35 35 35 35 34 34 32 30 27 24
5 7 3 2 3 5 5 6 7 6 10 7 5 7 6 3 3 4 5 10 14 17 20 22 22 26 31 32 30 31 31 31 31 32 35 36 36 35 36 35 35 35 35 33 32 31 28 26 23
4 5 2 4 4 5 2 8 8 9 8 7 6 7 5 2 3 5 5 9 12 14 19 24 26 30 33 31 31 31 31 30 30 31 34 35 35 34 37 38 38 37 36 33 31 29 27 25 24
1 4 6 5 5 4 2 15 4 5 2 8 7 6 3 3 3 4 5 6 10 17 21 27 30 32 33 33 32 32 32 33 32 32 34 36 36 34 39 40 39 38 37 34 32 30 28 26 25
Wind_Direction
314 330 159 42 60 62 291 240 290 162 177 172 114 156 194 120 162 187 148 162 161 163 159 164 167 164 158 154 147 137 130 113 106 100 94 88 85 87 86 82 83 85 85 86 85 84 83 98 87
306 178 65 84 86 69 260 247 208 209 142 129 105 101 122 161 182 142 140 169 169 167 163 164 166 162 159 156 149 140 136 120 113 105 99 95 90 87 88 86 85 88 87 88 85 90 95 94 89
204 102 82 89 103 183 213 213 179 123 148 157 110 358 148 184 182 156 156 167 167 169 168 168 167 164 162 160 154 148 144 126 122 111 103 97 94 90 88 87 86 86 88 88 89 94 93 92 91
230 34 44 83 230 238 216 213 165 132 260 244 137 140 279 214 167 159 158 169 167 171 172 173 172 169 166 165 159 156 151 141 136 121 111 99 91 91 90 91 88 88 91 93 91 97 95 93 93
45 48 63 85 268 258 256 231 165 162 180 169 201 197 241 219 185 169 163 164 169 172 174 176 175 173 171 170 166 163 158 153 142 130 120 106 98 93 90 89 90 92 94 96 95 95 99 100 96
42 94 64 221 255 257 253 164 155 185 157 157 144 152 234 195 178 168 164 164 171 172 175 177 176 176 175 175 174 169 164 158 154 136 125 111 103 98 95 95 95 95 95 94 95 98 100 97 92
116 86 197 166 244 303 211 149 172 180 170 237 149 155 247 219 176 165 168 168 174 180 180 182 180 180 181 181 178 174 170 164 161 144 131 116 106 101 105 106 101 97 96 95 101 103 101 97 94
103 90 132 226 200 248 192 182 165 163 223 79 178 208 224 196 175 168 173 177 182 188 190 192 186 183 184 183 182 179 173 173 170 157 141 125 113 107 110 111 108 104 101 102 105 106 104 99 96
126 69 200 224 155 240 145 185 149 176 130 232 208 201 191 168 172 169 173 180 187 191 194 195 193 192 191 187 191 182 181 184 180 170 151 135 126 123 117 111 110 105 104 104 104 103 103 103 98
87 121 218 203 193 223 197 183 175 162 159 245 270 237 217 176 177 178 181 186 189 190 191 194 194 198 197 195 194 192 197 190 188 180 169 163 158 149 132 126 120 114 109 106 106 104 105 103 102
150 185 199 230 223 201 188 214 176 165 217 218 211 202 181 186 192 193 195 196 195 192 192 193 197 195 202 209 204 201 200 198 192 188 181 175 171 159 151 142 137 131 125 117 114 111 106 103 101
152 201 183 265 201 152 192 131 211 205 222 195 221 186 172 188 199 202 201 200 197 196 196 196 197 194 200 201 211 209 206 202 200 197 192 184 181 173 164 157 150 144 137 128 124 120 115 109 105
148 243 233 304 204 234 249 235 233 247 242 237 154 188 198 200 209 211 209 204 202 203 201 202 203 202 202 206 210 210 210 212 210 204 200 196 192 183 176 170 164 157 147 138 132 125 121 115 110
146 248 284 280 240 251 222 268 174 258 256 216 210 228 221 211 212 210 212 211 209 207 208 208 210 212 213 213 214 216 216 217 219 214 209 203 200 194 184 178 174 167 159 147 138 133 128 119 114
90 328 325 241 225 241 172 281 236 237 181 248 237 247 242 233 222 219 217 216 215 214 213 215 216 218 220 220 219 219 222 219 220 221 213 208 206 201 194 187 179 173 165 156 147 140 134 128 123
52 48 350 298 151 309 169 272 272 0 217 255 250 251 253 245 233 234 230 229 223 221 218 217 218 220 223 223 223 222 223 223 219 220 218 210 212 208 203 193 185 178 170 163 154 148 142 134 129
7 229 209 311 204 125 167 271 264 4 236 275 265 253 246 259 246 240 235 232 229 225 220 217 218 220 223 222 221 221 223 226 222 216 217 221 215 211 208 198 188 183 175 168 159 152 150 140 131
200 212 239 242 201 176 213 262 267 252 254 255 267 266 252 244 244 238 234 231 227 224 221 221 219 218 217 216 215 214 216 218 219 214 216 217 216 211 209 200 188 182 172 166 162 156 150 145 137
137 182 231 251 248 193 233 247 267 264 238 257 260 251 250 248 251 241 241 231 223 220 218 216 212 211 208 205 197 201 205 207 206 208 207 207 210 210 207 199 188 181 174 172 168 161 156 143 142
159 178 249 275 249 187 273 255 254 261 249 240 249 255 246 242 247 233 224 225 220 217 215 213 212 211 211 212 201 203 203 203 205 207 207 207 208 207 208 199 196 182 177 171 171 167 152 150 152
211 192 214 229 327 247 311 276 241 279 253 258 251 248 255 246 251 227 203 218 217 214 215 214 212 211 210 209 204 201 199 197 198 200 205 206 207 207 208 199 191 186 183 178 182 178 171 164 173
238 206 187 197 76 253 203 287 263 250 253 254 259 247 251 242 244 225 205 212 215 219 215 213 211 212 210 209 204 201 197 193 202 202 205 206 204 203 205 196 191 188 187 188 188 185 184 177 176
232 134 167 160 186 343 205 219 267 33 258 256 264 262 257 251 235 234 212 220 223 217 213 210 211 211 207 207 208 209 210 210 211 209 203 198 194 192 192 194 190 191 196 195 191 188 187 186 183
141 84 56 52 89 271 198 194 226 189 214 264 267 337 3 307 274 273 254 223 217 215 209 202 201 203 210 206 208 211 211 211 202 199 198 195 192 190 190 190 193 197 196 194 191 189 189 194 196
146 111 294 316 357 244 17 240 259 270 237 229 248 118 108 341 318 311 200 178 182 190 195 193 198 198 204 206 210 211 216 215 213 206 202 195 191 189 190 191 191 191 191 186 185 189 195 197 197
197 165 174 213 215 275 26 241 241 234 257 258 286 293 252 291 310 264 238 210 193 194 192 190 198 202 205 208 211 215 218 219 215 212 209 204 198 196 191 190 190 189 185 186 187 188 187 187 181
189 203 192 52 89 1 226 285 285 270 276 271 258 240 261 259 275 264 207 205 199 200 197 193 200 202 204 206 214 215 218 216 218 214 211 206 203 198 191 189 186 185 183 183 182 180 176 172 167
168 168 86 326 203 253 262 271 229 249 248 256 221 225 254 229 235 229 209 207 204 205 204 199 204 201 201 205 213 217 217 218 219 214 211 209 205 199 191 186 182 180 178 178 176 172 168 166 160
151 205 170 138 157 186 294 261 215 223 210 191 192 174 197 180 209 232 222 209 209 202 204 198 203 201 203 206 212 214 216 217 218 220 217 211 207 200 192 186 182 180 176 176 176 171 166 165 160
344 237 162 146 217 242 168 264 167 214 145 161 176 216 221 167 227 229 225 209 215 206 201 207 206 207 210 206 210 212 214 214 216 216 216 213 208 200 195 189 185 181 179 176 176 172 170 171 168